CZ-6A DEB, 60698

Orbit data source: Space-Track

CZ-6A DEB, 60698 is space debris in LEO originally from a launch on Tue, 06 Aug 2024 UTC launched from the Taiyaun Space Center, China (TSC). Debris objects in space refer to the collection of defunct objects orbiting the Earth. Examples of debris include non-operational satellites, rocket bodies, and fragments generated from explosions, collisions, or faulty payload assembly.

Loading next visibility...
Identifier
60698, 2024-140DB
Orbit
LEO
Country
Flag of CNCN / PRC
Related business
Manufacturer
SAST
Mission
Spacecraft
Bus & Motor
Unknown
Mass
Unknown
Launch date (UTC)
2024-08-06 (2 years ago)
Launch vehicle
Unknown
Launch site
Taiyaun Space Center, China (TSC)
Object type
Payload
Rocket body
Debris
Shape & HBR
Unknown shape, 0.1 m
Radar Cross Section
Medium (>0.1 m² and <1 m²)

Expand to show TLE details & history
Last TLE update: 14 hours ago

TLE from 14 hours ago
0 CZ-6A DEB
1 60698U 24140DB  26171.28748115  .00001091  00000-0  52396-3 0  9992
2 60698  89.0184 276.1492 0060315 183.3460 176.7335 14.17287343 96177
Epoch: 2026-06-20T06:53Z
TLE epoch observation values (Epoch: 2026-06-20T06:53:58.371Z)
Latitude
0.00007°
Longitude
-95.84828°
Altitude
881.033 km
Speed
7.389 km/s
True Right ascension
18h 24m 35s
True Declination
0° 00' 00"
Sunlit
Object was in full shadow at epoch
Visualization orbit readout
Latitude
Unknown
Longitude
Unknown
Altitude
Unknown
Speed
Unknown
Apparent Right ascension
Unknown
Apparent Declination
Unknown
Sunlit
N/A
Visualization observer readout
Local Sidereal Time
07:19:52
Azimuth
Unknown
Elevation
Unknown
Doppler factor
Unknown
Orbital elements
Apogee altitude
874.981 km
Perigee altitude
788.011 km
Semi-major axis
7,209.633 km
Eccentricity
0.00603
Inclination
89.0184°
RAAN
276.1492°
Arg. of periapsis
183.346°
True anomaly
176.77259°
Mean anomaly
176.7335°
Eccentric anomaly
176.75307°
Mean motion
3.54547 °/min
Orbital period
101.54 mins
BSTAR
0.00052396
Loading maneuver chart data...
Computing Atmospheric mass density...
Loading historical data...
Loading historical data...
Loading historical data...
Loading historical data...
Loading historical data...
Loading historical data...
Loading historical data...

Documentation

Showing up to 5 results
|